Radiation Dose at Monitoring Post of Fukushima Daini Nuclear Power Station
Date,Time,MP-1(microSv/h),MP-2(microSv/h),MP-3(microSv/h),MP-4(microSv/h),MP-5(microSv/h),MP-6(microSv/h),MP-7(microSv/h),Wind Direction,Wind Velocity(m/s),Rain
2018/06/30,00:00,0.319,0.201,0.325,0.312,0.289,0.158,0.097,-,CALM,No
2018/06/30,00:10,0.316,0.202,0.323,0.312,0.291,0.157,0.097,-,CALM,No
2018/06/30,00:20,0.316,0.199,0.321,0.312,0.288,0.157,0.097,northeast,1.4,No
2018/06/30,00:30,0.319,0.202,0.324,0.314,0.289,0.158,0.098,northeast,1.5,No
2018/06/30,00:40,0.316,0.199,0.324,0.313,0.293,0.157,0.097,east-northeast,1.2,No
2018/06/30,00:50,0.319,0.202,0.323,0.310,0.288,0.157,0.097,east,1.8,No
2018/06/30,01:00,0.318,0.201,0.327,0.313,0.289,0.159,0.097,east-southeast,1.5,No
2018/06/30,01:10,0.317,0.201,0.323,0.313,0.292,0.157,0.097,east-southeast,1.5,No
2018/06/30,01:20,0.319,0.200,0.322,0.311,0.289,0.158,0.098,south-southeast,1.7,No
2018/06/30,01:30,0.317,0.201,0.325,0.315,0.290,0.158,0.097,south,4.0,No
2018/06/30,01:40,0.316,0.200,0.324,0.313,0.294,0.158,0.098,south-southwest,4.5,No
2018/06/30,01:50,0.320,0.202,0.323,0.312,0.288,0.159,0.097,southwest,3.7,No
2018/06/30,02:00,0.317,0.201,0.325,0.315,0.292,0.157,0.098,south-southwest,7.2,No
2018/06/30,02:10,0.320,0.201,0.323,0.310,0.292,0.158,0.097,south-southwest,6.4,No
2018/06/30,02:20,0.319,0.201,0.325,0.313,0.287,0.158,0.098,south-southwest,5.3,No
2018/06/30,02:30,0.317,0.202,0.325,0.312,0.292,0.157,0.097,south-southwest,5.3,No
2018/06/30,02:40,0.319,0.200,0.323,0.311,0.289,0.159,0.098,south-southwest,5.5,No
2018/06/30,02:50,0.317,0.200,0.324,0.314,0.288,0.156,0.098,south-southwest,5.7,No
2018/06/30,03:00,0.319,0.200,0.322,0.312,0.292,0.158,0.097,south-southwest,5.9,No
2018/06/30,03:10,0.320,0.201,0.322,0.311,0.290,0.158,0.097,south-southwest,5.5,No
2018/06/30,03:20,0.315,0.201,0.326,0.314,0.288,0.157,0.097,south-southwest,6.3,No
2018/06/30,03:30,0.319,0.200,0.324,0.311,0.291,0.159,0.097,southwest,7.0,No
2018/06/30,03:40,0.317,0.201,0.322,0.311,0.291,0.157,0.097,south-southwest,6.1,No
2018/06/30,03:50,0.315,0.199,0.326,0.313,0.287,0.156,0.097,south-southwest,5.2,No
2018/06/30,04:00,0.320,0.199,0.322,0.310,0.291,0.158,0.096,south-southwest,5.8,No
2018/06/30,04:10,0.317,0.202,0.322,0.311,0.291,0.156,0.098,south-southwest,4.2,No
2018/06/30,04:20,0.316,0.200,0.325,0.314,0.288,0.158,0.097,south-southwest,4.3,No
2018/06/30,04:30,0.320,0.202,0.323,0.311,0.293,0.158,0.097,southwest,3.1,No
2018/06/30,04:40,0.315,0.200,0.324,0.313,0.291,0.157,0.097,southwest,3.1,No
2018/06/30,04:50,0.318,0.201,0.325,0.311,0.289,0.159,0.097,southwest,1.5,No
2018/06/30,05:00,0.318,0.202,0.323,0.310,0.292,0.157,0.097,south-southwest,1.5,No
2018/06/30,05:10,0.316,0.201,0.324,0.315,0.291,0.157,0.097,southwest,0.8,No
2018/06/30,05:20,0.319,0.201,0.325,0.314,0.288,0.157,0.098,west-southwest,0.9,No
2018/06/30,05:30,0.318,0.201,0.323,0.312,0.290,0.157,0.098,west-northwest,1.4,No
2018/06/30,05:40,0.315,0.200,0.325,0.314,0.292,0.158,0.098,north-northwest,1.7,No
2018/06/30,05:50,0.318,0.199,0.326,0.313,0.290,0.158,0.097,north,1.8,No
2018/06/30,06:00,0.317,0.198,0.323,0.310,0.289,0.157,0.097,north-northwest,1.7,No
2018/06/30,06:10,0.317,0.198,0.324,0.315,0.289,0.159,0.097,north,2.4,No
2018/06/30,06:20,0.320,0.199,0.325,0.312,0.289,0.157,0.097,north,2.6,No
2018/06/30,06:30,0.316,0.200,0.323,0.311,0.289,0.157,0.098,north-northwest,1.5,No
2018/06/30,06:40,0.315,0.200,0.322,0.313,0.289,0.159,0.097,north-northeast,0.8,No
2018/06/30,06:50,0.320,0.200,0.326,0.315,0.288,0.159,0.097,-,CALM,No
2018/06/30,07:00,0.321,0.202,0.325,0.312,0.289,0.158,0.097,-,CALM,No
2018/06/30,07:10,0.317,0.201,0.324,0.311,0.288,0.159,0.097,north-northeast,0.7,No
2018/06/30,07:20,0.315,0.202,0.324,0.309,0.292,0.158,0.097,-,CALM,No
2018/06/30,07:30,0.319,0.202,0.323,0.311,0.294,0.157,0.097,-,CALM,No
2018/06/30,07:40,0.320,0.201,0.323,0.310,0.291,0.157,0.098,southeast,0.7,No
2018/06/30,07:50,0.317,0.202,0.322,0.310,0.290,0.158,0.097,southeast,1.7,No
2018/06/30,08:00,0.316,0.202,0.323,0.310,0.290,0.157,0.096,south-southeast,1.7,No
2018/06/30,08:10,0.316,0.201,0.324,0.310,0.288,0.157,0.097,south,1.8,No
2018/06/30,08:20,0.315,0.201,0.324,0.311,0.290,0.157,0.097,south,1.7,No
2018/06/30,08:30,0.315,0.201,0.324,0.312,0.290,0.158,0.097,south-southwest,0.9,No
2018/06/30,08:40,0.315,0.201,0.324,0.312,0.291,0.158,0.097,south-southwest,0.7,No
2018/06/30,08:50,0.316,0.201,0.324,0.314,0.291,0.157,0.097,-,CALM,No
2018/06/30,09:00,0.316,0.201,0.324,0.314,0.291,0.157,0.096,south,1.2,No
2018/06/30,09:10,0.315,0.200,0.325,0.313,0.290,0.156,0.096,south,1.2,No
2018/06/30,09:20,0.316,0.202,0.323,0.313,0.290,0.157,0.096,south,1.4,No
2018/06/30,09:30,0.316,0.200,0.322,0.311,0.291,0.156,0.096,south,2.6,No
2018/06/30,09:40,0.318,0.201,0.323,0.313,0.290,0.157,0.097,south-southeast,3.0,No
2018/06/30,09:50,0.317,0.200,0.323,0.312,0.289,0.159,0.097,south-southeast,4.0,No
2018/06/30,10:00,0.319,0.201,0.325,0.314,0.290,0.157,0.097,south,4.1,No
2018/06/30,10:10,0.319,0.202,0.324,0.313,0.291,0.158,0.097,south-southeast,3.6,No
2018/06/30,10:20,0.319,0.202,0.323,0.315,0.290,0.157,0.098,south-southeast,4.7,No
2018/06/30,10:30,0.317,0.200,0.325,0.314,0.290,0.157,0.097,south,5.9,No
2018/06/30,10:40,0.316,0.200,0.323,0.314,0.291,0.156,0.097,south,8.7,No
2018/06/30,10:50,0.318,0.199,0.323,0.313,0.288,0.156,0.098,south,8.8,No
2018/06/30,11:00,0.317,0.200,0.324,0.313,0.289,0.156,0.097,south,11.5,No
2018/06/30,11:10,0.318,0.199,0.324,0.312,0.289,0.157,0.097,south,10.3,No
2018/06/30,11:20,0.317,0.201,0.325,0.313,0.287,0.158,0.097,south,11.5,No
2018/06/30,11:30,0.319,0.201,0.324,0.311,0.290,0.158,0.096,south,11.2,No
2018/06/30,11:40,0.318,0.200,0.326,0.313,0.289,0.158,0.096,south,10.1,No
2018/06/30,11:50,0.319,0.200,0.325,0.313,0.289,0.158,0.097,south,10.4,No
2018/06/30,12:00,0.317,0.201,0.324,0.313,0.288,0.157,0.097,south,10.1,No
2018/06/30,12:10,0.319,0.202,0.325,0.313,0.290,0.157,0.097,south,10.4,No
2018/06/30,12:20,0.319,0.199,0.328,0.312,0.290,0.157,0.097,south,11.4,No
2018/06/30,12:30,0.319,0.199,0.325,0.314,0.290,0.158,0.096,south,11.1,No
2018/06/30,12:40,0.318,0.202,0.325,0.313,0.289,0.157,0.097,south,12.0,No
2018/06/30,12:50,0.319,0.201,0.324,0.314,0.289,0.157,0.097,south,11.2,No
2018/06/30,13:00,0.319,0.201,0.326,0.313,0.290,0.158,0.096,south,10.6,No
2018/06/30,13:10,0.319,0.201,0.324,0.314,0.289,0.159,0.097,south,11.2,No
2018/06/30,13:20,0.318,0.201,0.326,0.313,0.291,0.158,0.097,south,10.6,No
2018/06/30,13:30,0.318,0.201,0.324,0.312,0.289,0.157,0.097,south,9.5,No
2018/06/30,13:40,0.320,0.202,0.327,0.315,0.290,0.158,0.097,south,10.0,No
2018/06/30,13:50,0.318,0.202,0.325,0.313,0.291,0.158,0.097,south,10.1,No
2018/06/30,14:00,0.318,0.202,0.326,0.315,0.290,0.157,0.097,south,8.8,No
2018/06/30,14:10,0.319,0.201,0.325,0.314,0.291,0.158,0.097,south,9.6,No
2018/06/30,14:20,0.318,0.202,0.324,0.314,0.289,0.157,0.097,south,10.3,No
2018/06/30,14:30,0.317,0.200,0.324,0.313,0.288,0.158,0.097,south,9.8,No
2018/06/30,14:40,0.317,0.201,0.322,0.312,0.288,0.157,0.097,south,9.3,No
2018/06/30,14:50,0.317,0.201,0.323,0.313,0.288,0.159,0.096,south,9.8,No
2018/06/30,15:00,0.319,0.201,0.323,0.313,0.290,0.157,0.098,south,9.8,No
2018/06/30,15:10,0.321,0.202,0.325,0.313,0.290,0.158,0.097,south-southwest,9.5,No
2018/06/30,15:20,0.319,0.201,0.326,0.313,0.292,0.157,0.097,south-southwest,9.5,No
2018/06/30,15:30,0.318,0.201,0.325,0.313,0.290,0.157,0.098,south-southwest,10.4,No
2018/06/30,15:40,0.317,0.200,0.323,0.313,0.288,0.157,0.097,south-southwest,8.4,No
2018/06/30,15:50,0.316,0.201,0.324,0.313,0.289,0.158,0.098,south-southwest,7.2,No
2018/06/30,16:00,0.316,0.200,0.322,0.313,0.288,0.158,0.097,south-southwest,6.6,No
2018/06/30,16:10,0.315,0.199,0.324,0.312,0.289,0.156,0.097,south-southwest,6.6,No
2018/06/30,16:20,0.316,0.199,0.324,0.312,0.290,0.156,0.096,south-southwest,5.6,No
2018/06/30,16:30,0.315,0.199,0.323,0.311,0.289,0.156,0.095,south-southwest,9.0,No
2018/06/30,16:40,0.319,0.199,0.324,0.313,0.290,0.157,0.096,south-southwest,8.9,No
2018/06/30,16:50,0.321,0.200,0.323,0.311,0.289,0.158,0.096,south-southwest,8.5,No
2018/06/30,17:00,0.320,0.199,0.324,0.311,0.290,0.158,0.097,south-southwest,8.6,No
2018/06/30,17:10,0.318,0.200,0.323,0.311,0.289,0.158,0.097,south,7.8,No
2018/06/30,17:20,0.318,0.199,0.324,0.311,0.288,0.158,0.097,south-southwest,9.5,No
2018/06/30,17:30,0.318,0.200,0.323,0.312,0.288,0.158,0.098,south-southwest,7.9,No
2018/06/30,17:40,0.315,0.199,0.324,0.311,0.287,0.158,0.098,south-southwest,6.0,No
2018/06/30,17:50,0.316,0.200,0.322,0.312,0.289,0.157,0.097,south-southwest,6.2,No
2018/06/30,18:00,0.321,0.202,0.323,0.317,0.288,0.158,0.097,south-southwest,5.6,No
2018/06/30,18:10,0.321,0.202,0.323,0.317,0.289,0.159,0.097,south-southwest,5.9,No
2018/06/30,18:20,0.320,0.202,0.328,0.314,0.287,0.158,0.098,south-southwest,4.8,No
2018/06/30,18:30,0.317,0.201,0.326,0.313,0.287,0.157,0.098,southwest,3.9,No
2018/06/30,18:40,0.317,0.200,0.326,0.311,0.289,0.158,0.097,west-southwest,2.2,No
2018/06/30,18:50,0.321,0.201,0.327,0.311,0.288,0.158,0.097,southwest,2.1,No
2018/06/30,19:00,0.319,0.202,0.325,0.317,0.294,0.159,0.098,south-southwest,2.4,No
2018/06/30,19:10,0.319,0.202,0.322,0.317,0.292,0.158,0.097,southwest,1.6,No
2018/06/30,19:20,0.316,0.199,0.326,0.314,0.291,0.157,0.096,southwest,1.6,No
2018/06/30,19:30,0.322,0.200,0.328,0.311,0.286,0.159,0.098,-,CALM,No
2018/06/30,19:40,0.321,0.202,0.326,0.313,0.288,0.158,0.097,-,CALM,No
2018/06/30,19:50,0.318,0.202,0.323,0.316,0.293,0.158,0.097,-,CALM,No
2018/06/30,20:00,0.318,0.199,0.325,0.316,0.293,0.158,0.097,northwest,1.1,No
2018/06/30,20:10,0.322,0.202,0.326,0.312,0.290,0.159,0.098,north,2.8,No
2018/06/30,20:20,0.318,0.201,0.327,0.311,0.288,0.157,0.097,north,3.7,No
2018/06/30,20:30,0.319,0.200,0.324,0.316,0.291,0.158,0.097,north,4.0,No
2018/06/30,20:40,0.321,0.200,0.324,0.315,0.291,0.158,0.098,north,3.8,No
2018/06/30,20:50,0.318,0.201,0.329,0.312,0.290,0.158,0.097,north-northeast,4.6,No
2018/06/30,21:00,0.317,0.200,0.328,0.313,0.289,0.158,0.097,north-northeast,3.9,No
2018/06/30,21:10,0.321,0.201,0.323,0.315,0.294,0.158,0.097,north,3.3,No
2018/06/30,21:20,0.319,0.202,0.327,0.314,0.291,0.157,0.097,north,4.0,No
2018/06/30,21:30,0.318,0.200,0.327,0.311,0.288,0.157,0.097,north,3.5,No
2018/06/30,21:40,0.322,0.201,0.325,0.315,0.292,0.158,0.097,north,2.1,No
2018/06/30,21:50,0.318,0.202,0.323,0.317,0.292,0.159,0.097,north-northeast,2.0,No
2018/06/30,22:00,0.318,0.200,0.328,0.313,0.290,0.157,0.097,north-northeast,2.2,No
2018/06/30,22:10,0.321,0.201,0.326,0.314,0.288,0.158,0.097,north,1.6,No
2018/06/30,22:20,0.319,0.201,0.323,0.317,0.293,0.159,0.098,north-northeast,0.9,No
2018/06/30,22:30,0.316,0.200,0.328,0.313,0.291,0.157,0.097,northeast,1.0,No
2018/06/30,22:40,0.321,0.201,0.326,0.314,0.287,0.159,0.098,south-southeast,0.9,No
2018/06/30,22:50,0.318,0.202,0.324,0.315,0.292,0.158,0.098,south-southeast,1.3,No
2018/06/30,23:00,0.318,0.200,0.325,0.314,0.292,0.157,0.097,east-northeast,0.6,No
2018/06/30,23:10,0.321,0.202,0.326,0.313,0.289,0.158,0.098,northeast,1.4,No
2018/06/30,23:20,0.319,0.201,0.324,0.316,0.289,0.158,0.098,northeast,1.2,No
2018/06/30,23:30,0.317,0.201,0.326,0.315,0.294,0.158,0.097,east-northeast,0.6,No
2018/06/30,23:40,0.321,0.202,0.327,0.310,0.288,0.158,0.098,-,CALM,No
2018/06/30,23:50,0.319,0.201,0.324,0.316,0.289,0.158,0.097,-,CALM,No
